Location: Banksville Park
(38.5557°N, 75.1182°W)
Time: 13:28:16
(UTC+00:00)

Cosmos 1898 Rocket - Pass Details

Date: 19 September 2020
Orbit: 753 x 784 km, 74.0° (Epoch: 22 October)

Event Time Altitude Azimuth Distance (km) Brightness Sun altitude
Rises 09:51:15 0° 338° (NNW) 3,238 6.6 -11.5°
Reaches altitude 10° 09:53:38 10° 337° (NNW) 2,313 5.9 -11.0°
Maximum altitude 09:58:51 70° 255° (WSW) 823 3.5 -10.0°
Drops below altitude 10° 10:04:05 10° 172° (S) 2,318 6.0 -9.0°
Sets 10:06:28 0° 170° (S) 3,245 6.8 -8.5°
